Weather History for Wheeler AAF, HI

Change the Weather History Date:

Wednesday, March 28, 2012

  Actual Average Record
Temperature  
Mean Temperature 66 °F -  
Max Temperature 76 °F 74 °F 80 °F (2002)
Min Temperature 56 °F 62 °F 56 °F (2012)
Cooling Degree Days 1    
Growing Degree Days 16 (Base 50)    
Moisture  
Dew Point 55 °F    
Average Humidity 69    
Maximum Humidity 90    
Minimum Humidity 44    
Precipitation  
Precipitation 0.00 in - - ()
Sea Level Pressure  
Sea Level Pressure 30.06 in    
Wind  
Wind Speed 6 mph (North)    
Max Wind Speed 13 mph    
Max Gust Speed 16 mph    
Visibility 10 miles    
Events      
Averages and records for this station are not official NWS values.
T = Trace of Precipitation, MM = Missing Value Source: NWS Daily Summary

Daily Weather History Graph

Daily Weather History Graph

Search for Another Location

Airport:

Trip Planner

Search our weather history database for the weather conditions in past years. The results will help you decide how hot, cold, wet, or windy it might be!

Date:

Astronomy

Mar. 28, 2012 Rise Set
Actual Time 6:28 AM HST 6:46 PM HST
Civil Twilight 6:05 AM HST 7:08 PM HST
Nautical Twilight 5:39 AM HST 7:34 PM HST
Astronomical Twilight 5:13 AM HST 8:00 PM HST
Moon 10:31 AM HST No Moon Set
Length of Visible Light 13h 02m
Length of Day
12h 17m
Waxing Crescent, 32% of the Moon is Illuminated
Mar 28
Waxing Crescent
Mar 30
First Quarter
Apr 6
Full
Apr 13
Last Quarter
Apr 20
New

Hourly Weather History & Observations

Time (HST) Temp. Dew Point Humidity Pressure Visibility Wind Dir Wind Speed Gust Speed Precip Events Conditions
12:55 AM 60.3 °F 56.1 °F 86% 30.07 in 10.0 mi West 4.6 mph - N/A   Partly Cloudy
1:55 AM 59.2 °F 55.4 °F 87% 30.06 in 10.0 mi NW 4.6 mph - N/A   Partly Cloudy
2:55 AM 59.0 °F 55.0 °F 87% 30.04 in 10.0 mi Calm Calm - N/A   Clear
3:55 AM 59.2 °F 54.7 °F 85% 30.03 in 10.0 mi WNW 3.5 mph - N/A   Clear
4:55 AM 57.9 °F 54.1 °F 87% 30.04 in 10.0 mi NW 5.8 mph - N/A   Partly Cloudy
5:55 AM 56.5 °F 53.6 °F 90% 30.05 in 10.0 mi West 5.8 mph - N/A   Partly Cloudy
6:55 AM 59.2 °F 54.5 °F 84% 30.06 in 10.0 mi WNW 5.8 mph - N/A   Scattered Clouds
7:55 AM 65.5 °F 55.8 °F 71% 30.08 in 10.0 mi Calm Calm - N/A   Clear
8:55 AM 70.0 °F 55.2 °F 59% 30.08 in 10.0 mi ENE 11.5 mph - N/A   Scattered Clouds
9:55 AM 72.1 °F 54.1 °F 53% 30.08 in 10.0 mi East 10.4 mph - N/A   Clear
10:55 AM 73.0 °F 56.8 °F 57% 30.08 in 10.0 mi NE 8.1 mph - N/A   Clear
11:55 AM 73.6 °F 55.4 °F 53% 30.07 in 10.0 mi Variable 6.9 mph - N/A   Clear
12:55 PM 74.7 °F 54.1 °F 49% 30.05 in 10.0 mi ENE 11.5 mph - N/A   Clear
1:55 PM 76.1 °F 52.9 °F 44% 30.04 in 10.0 mi ENE 9.2 mph 16.1 mph N/A   Clear
2:55 PM 75.9 °F 53.4 °F 45% 30.03 in 10.0 mi East 9.2 mph - N/A   Clear
3:55 PM 75.2 °F 54.9 °F 49% 30.02 in 10.0 mi East 10.4 mph - N/A   Clear
4:55 PM 73.8 °F 55.6 °F 53% 30.03 in 10.0 mi ENE 12.7 mph - N/A   Clear
5:55 PM 71.2 °F 55.0 °F 56% 30.04 in 10.0 mi NE 11.5 mph - N/A   Clear
6:55 PM 69.3 °F 56.5 °F 64% 30.07 in 10.0 mi NNE 8.1 mph - N/A   Clear
7:55 PM 67.6 °F 57.7 °F 71% 30.08 in 10.0 mi North 5.8 mph - N/A   Partly Cloudy
8:55 PM 66.7 °F 57.6 °F 72% 30.09 in 10.0 mi North 5.8 mph - N/A   Clear
9:55 PM 65.8 °F 57.0 °F 73% 30.09 in 10.0 mi North 4.6 mph - N/A   Partly Cloudy
10:55 PM 61.0 °F 56.3 °F 85% 30.09 in 10.0 mi NW 4.6 mph - N/A   Scattered Clouds
11:55 PM 61.0 °F 56.8 °F 86% 30.08 in 10.0 mi NW 3.5 mph - N/A   Mostly Cloudy